Погода в Корте

Франция     42°18′32″N   9°08′56″E
темп.,
°C
ветер,
м/с
пор.,
м/с
влажн.,
%
обл.,
%
осадки,
мм/ч
давл.,
гПа
погр.,
м
19 сентября, вс
вс1923:00+15з32762 0.0 101441
02:00+15з32760 0.0 101542
05:00+16з23715 0.0 101455
08:00+16з23765 0.0 101489
11:00+22юз235831 0.4 10131021
14:00+22зюз35482 0.8 10131590
17:00+20з35370 0.0 10121293
20:00+13з45761 0.0 1013175
20 сентября, пн
пн2023:00+13з45781 0.0 1014174
02:00+13з357848 0.1 1014158
05:00+12з348152 0.0 1013110
08:00+13з34771 0.0 1014200
11:00+19зюз36501 0.1 10141419
14:00+21зюз36380 0.1 10141713
17:00+21зюз35385 0.0 10141550
20:00+13з337635 0.0 101755
21 сентября, вт
вт2123:00+12з34825 0.0 101969
02:00+12з33805 0.0 101944
05:00+12з22730 0.0 101917
08:00+13з22670 0.0 102029
11:00+20вюв21481 0.0 10201225
14:00+22вюв434325 0.0 10201641
17:00+20вюв325869 0.1 10201083
20:00+16юв017643 0.1 102217
22 сентября, ср
ср2223:00+14зсз11855 0.0 102312
02:00+13зсз22830 0.0 102219
05:00+12з118464 0.0 102213
08:00+14зюз117751 0.0 102125
11:00+20вюв225357 0.0 10211031
14:00+23вюв43412 0.0 10191444
17:00+21вюв32507 0.0 1018881
20:00+14з11750 0.0 101911
23 сентября, чт
чт2323:00+15з22740 0.0 101914
02:00+14з22720 0.0 101913
05:00+13з22600 0.0 101815
08:00+14зсз22460 0.0 101821
11:00+22вюв223423 0.0 10181085
14:00+24вюв3338100 0.0 10171257
17:00+21вюв325299 0.0 1017799
20:00+15з217269 0.0 101716